#timestamp,LO_Frequency,Hit,Temp,Hum 
1486569615.7,286047068.2,N,0.0,0.0
1486569635.6,286047069.9,N,0.0,0.0
1486569655.4,286047071.5,N,0.0,0.0
1486569675.2,286047071.6,N,0.0,0.0
1486569695.0,286047071.3,N,0.0,0.0
1486569696.0,286047071.3,N,0.0,0.0
1486569715.8,286047071.7,N,0.0,0.0
1486569735.6,286047072.6,N,0.0,0.0
1486569755.4,286047069.3,N,0.0,0.0
1486569775.3,286047068.4,N,0.0,0.0
1486569795.1,286047065.6,N,0.0,0.0
1486569815.8,286047067.2,N,0.0,0.0
1486569835.7,286047065.3,N,0.0,0.0
1486569855.5,286047068.7,N,0.0,0.0
1486569875.3,286047069.7,N,0.0,0.0
1486569895.2,286047069.8,N,0.0,0.0
1486569915.9,286047067.7,N,0.0,0.0
1486569935.7,286047067.9,N,0.0,0.0
1486569955.6,286047063.8,N,0.0,0.0
1486569975.4,286047066.7,N,0.0,0.0
1486569995.2,286047064.2,N,0.0,0.0
1486570015.1,286047064.2,N,0.0,0.0
1486570016.0,286047064.2,N,0.0,0.0
1486570035.8,286047066.4,N,0.0,0.0
1486570055.6,286047064.9,N,0.0,0.0
1486570075.5,286047064.9,N,0.0,0.0
1486570095.3,286047064.4,N,0.0,0.0
1486570115.1,286047064.6,N,0.0,0.0
1486570135.9,286047064.9,N,0.0,0.0
1486570155.7,286047065.2,N,0.0,0.0
1486570175.5,286047062.4,N,0.0,0.0
1486570195.3,286047061.3,N,0.0,0.0
1486570215.2,286047057.3,N,0.0,0.0
1486570235.0,286047060.1,N,0.0,0.0
1486570235.9,286047060.1,N,0.0,0.0
1486570255.7,286047058.0,N,0.0,0.0
1486570275.6,286047056.4,N,0.0,0.0
1486570295.4,286047054.4,N,0.0,0.0
1486570315.2,286047055.9,N,0.0,0.0
1486570335.1,286047055.2,N,0.0,0.0
1486570336.0,286047055.2,N,0.0,0.0
1486570355.8,286047052.5,N,0.0,0.0
1486570375.6,286047050.0,N,0.0,0.0
1486570395.5,286047050.6,N,0.0,0.0
1486570415.3,286047048.0,N,0.0,0.0
1486570435.1,286047048.3,N,0.0,0.0
1486570455.9,286047050.4,N,0.0,0.0
1486570475.7,286047049.0,N,0.0,0.0
1486570495.5,286047048.7,N,0.0,0.0
1486570515.4,286047045.5,N,0.0,0.0
1486570535.2,286047045.0,N,0.0,0.0
1486570555.0,286047045.5,N,0.0,0.0
1486570555.9,286047045.5,N,0.0,0.0
1486570575.8,286047045.2,N,0.0,0.0
1486570595.6,286047044.4,N,0.0,0.0
1486570615.4,286047041.3,N,0.0,0.0
1486570635.3,286047042.7,N,0.0,0.0
1486570655.1,286047040.7,N,0.0,0.0
1486570656.0,286047040.7,N,0.0,0.0
1486570675.8,286047038.2,N,0.0,0.0
1486570695.7,286047040.1,N,0.0,0.0
1486570715.5,286047041.9,N,0.0,0.0
1486570735.3,286047041.2,N,0.0,0.0
1486570755.1,286047040.8,N,0.0,0.0
1486570775.9,286047038.9,N,0.0,0.0
1486570795.7,286047039.5,N,0.0,0.0
1486570815.5,286047036.6,N,0.0,0.0
1486570835.4,286047037.7,N,0.0,0.0
1486570855.2,286047037.7,N,0.0,0.0
1486570875.0,286047035.2,N,0.0,0.0
1486570875.9,286047035.2,N,0.0,0.0
1486570895.8,286047035.6,N,0.0,0.0
1486570915.6,286047035.2,N,0.0,0.0
1486570935.4,286047035.9,N,0.0,0.0
1486570955.3,286047036.4,N,0.0,0.0
1486570975.1,286047033.5,N,0.0,0.0
1486570976.0,286047033.5,N,0.0,0.0
1486570995.8,286047030.1,N,0.0,0.0
1486571015.7,286047031.2,N,0.0,0.0
1486571035.5,286047028.8,N,0.0,0.0
1486571055.3,286047029.1,N,0.0,0.0
1486571075.2,286047029.5,N,0.0,0.0
1486571095.9,286047029.0,N,0.0,0.0
1486571115.7,286047027.5,N,0.0,0.0
1486571135.6,286047029.1,N,0.0,0.0
1486571155.4,286047025.4,N,0.0,0.0
1486571175.2,286047025.3,N,0.0,0.0
1486571195.1,286047025.6,N,0.0,0.0
1486571196.0,286047025.6,N,0.0,0.0
1486571215.8,286047026.1,N,0.0,0.0
1486571235.6,286047024.3,N,0.0,0.0
1486571255.5,286047024.5,N,0.0,0.0
1486571275.3,286047021.5,N,0.0,0.0
1486571295.1,286047020.7,N,0.0,0.0
1486571315.8,286047020.6,N,0.0,0.0
1486571335.7,286047020.3,N,0.0,0.0
1486571355.5,286047017.3,N,0.0,0.0
1486571375.3,286047020.1,N,0.0,0.0
1486571395.2,286047021.3,N,0.0,0.0
1486571415.0,286047021.8,N,0.0,0.0
1486571415.9,286047021.8,N,0.0,0.0
1486571435.7,286047021.8,N,0.0,0.0
1486571455.6,286047021.5,N,0.0,0.0
1486571475.4,286047019.4,N,0.0,0.0
1486571495.2,286047020.3,N,0.0,0.0
1486571515.1,286047017.7,N,0.0,0.0
1486571516.0,286047017.7,N,0.0,0.0
1486571535.8,286047017.9,N,0.0,0.0
1486571555.6,286047016.4,N,0.0,0.0
1486571575.5,286047017.0,N,0.0,0.0
1486571595.3,286047016.9,N,0.0,0.0
1486571615.1,286047017.0,N,0.0,0.0
1486571635.9,286047014.6,N,0.0,0.0
1486571655.7,286047012.8,N,0.0,0.0
1486571675.5,286047011.6,N,0.0,0.0
1486571695.4,286047010.2,N,0.0,0.0
1486571715.2,286047010.2,N,0.0,0.0
1486571735.0,286047009.3,N,0.0,0.0
1486571735.9,286047009.3,N,0.0,0.0
1486571755.8,286047011.5,N,0.0,0.0
1486571775.6,286047011.4,N,0.0,0.0
1486571795.4,286047014.0,N,0.0,0.0
1486571815.3,286047012.5,N,0.0,0.0
1486571835.1,286047012.5,N,0.0,0.0
1486571836.0,286047012.5,N,0.0,0.0
1486571855.8,286047012.5,N,0.0,0.0
1486571875.7,286047013.4,N,0.0,0.0
1486571895.5,286047011.1,N,0.0,0.0
1486571915.3,286047010.9,N,0.0,0.0
1486571935.1,286047010.4,N,0.0,0.0
1486571955.9,286047007.8,N,0.0,0.0
1486571975.7,286047006.6,N,0.0,0.0
1486571995.5,286047006.3,N,0.0,0.0
1486572015.4,286047006.6,N,0.0,0.0
1486572035.2,286047006.5,N,0.0,0.0
1486572055.0,286047009.1,N,0.0,0.0
1486572055.9,286047009.1,N,0.0,0.0
1486572075.8,286047008.3,N,0.0,0.0
1486572095.6,286047008.4,N,0.0,0.0
1486572115.4,286047008.4,N,0.0,0.0
1486572135.3,286047006.2,N,0.0,0.0
1486572155.1,286047008.7,N,0.0,0.0
1486572156.0,286047008.7,N,0.0,0.0
1486572175.8,286047009.0,N,0.0,0.0
1486572195.7,286047005.1,N,0.0,0.0
1486572215.5,286047008.6,N,0.0,0.0
1486572235.3,286047008.9,N,0.0,0.0
1486572255.2,286047010.4,N,0.0,0.0
1486572275.9,286047009.0,N,0.0,0.0
1486572295.7,286047009.2,N,0.0,0.0
1486572315.6,286047010.7,N,0.0,0.0
1486572335.4,286047010.3,N,0.0,0.0
1486572355.2,286047006.8,N,0.0,0.0
1486572375.0,286047005.8,N,0.0,0.0
1486572376.0,286047005.8,N,0.0,0.0
1486572395.8,286047001.7,N,0.0,0.0
1486572415.6,286047000.2,N,0.0,0.0
1486572435.4,286046997.0,N,0.0,0.0
1486572455.3,286046996.3,N,0.0,0.0
1486572475.1,286046993.0,N,0.0,0.0
1486572495.8,286046992.2,N,0.0,0.0
1486572515.7,286046992.8,N,0.0,0.0
1486572535.5,286046992.2,N,0.0,0.0
1486572555.3,286046990.6,N,0.0,0.0
1486572575.2,286046991.1,N,0.0,0.0
1486572595.9,286046992.4,N,0.0,0.0
1486572615.7,286046993.0,N,0.0,0.0
1486572635.6,286046990.4,N,0.0,0.0
1486572655.4,286046992.8,N,0.0,0.0
1486572675.2,286046988.5,N,0.0,0.0
1486572695.1,286046993.0,N,0.0,0.0
1486572696.0,286046993.0,N,0.0,0.0
1486572715.8,286046993.2,N,0.0,0.0
1486572735.6,286046990.5,N,0.0,0.0
1486572755.5,286046989.8,N,0.0,0.0
1486572775.3,286046991.6,N,0.0,0.0
1486572795.1,286046990.5,N,0.0,0.0
1486572815.9,286046991.0,N,0.0,0.0
1486572835.7,286046992.3,N,0.0,0.0
1486572855.5,286046992.9,N,0.0,0.0
1486572875.3,286046993.1,N,0.0,0.0
1486572895.2,286046994.4,N,0.0,0.0
1486572915.0,286046993.4,N,0.0,0.0
1486572915.9,286046993.4,N,0.0,0.0
1486572935.7,286046996.0,N,0.0,0.0
1486572955.6,286046995.3,N,0.0,0.0
1486572975.4,286046997.7,N,0.0,0.0
1486572995.2,286046997.4,N,0.0,0.0
1486573015.1,286046997.4,N,0.0,0.0
1486573016.0,286046997.4,N,0.0,0.0
1486573035.8,286046995.3,N,0.0,0.0
1486573055.6,286046996.8,N,0.0,0.0
1486573075.5,286046998.9,N,0.0,0.0
1486573095.3,286047000.3,N,0.0,0.0
1486573115.1,286046999.1,N,0.0,0.0
1486573135.9,286047001.1,N,0.0,0.0
1486573155.7,286047002.2,N,0.0,0.0
1486573175.5,286047004.2,N,0.0,0.0
1486573195.4,286047000.2,N,0.0,0.0
